Location: Rounton
(54.4000°N, 1.3500°W)
Time: 14:25:40
(UTC+01:00)

S-56A Canister/Altair - Pass Details

Date: 13 September 2024
Orbit: 636 x 2487 km, 38.9° (Epoch: 02 October)

Event Time Altitude Azimuth Distance (km) Brightness Sun altitude
Rises 21:34:56 0° 234° (SW) 3,650 11.3 -18.3°
Reaches altitude 10° 21:37:38 10° 222° (SW) 2,923 10.6 -18.6°
Maximum altitude 21:43:32 27° 167° (SSE) 2,364 9.6 -19.3°
Enters shadow 21:45:19 25° 149° (SSE) 2,576 9.6 -19.5°
Drops below altitude 10° 21:51:35 10° 116° (ESE) 4,073 - -20.3°
Sets 21:56:07 0° 106° (ESE) 5,387 - -20.8°
